Weather in Vinogradny

Russia / Stavropol Krai     44°42′33″N   44°06′30″E
temp.,
°C
wind,
m/s
gust,
m/s
humid.,
%
clouds,
%
prec.,
mm/h
press.,
hPa
HPBL,
m
19 may, wed
wed1900:00+16ene33700 0.0 101129
03:00+15ese35753 0.0 101076
06:00+16ese497790 0.0 1009264
09:00+21sse235564 0.0 1010934
12:00+25w55495 0.0 10101489
15:00+20nw9106111 1.1 1013789
18:00+18nnw4866100 0.4 1015300
21:00+15nnw33741 0.7 101628
20 may, thu
thu2000:00+13ssw008238 0.0 101710
03:00+12s11860 0.0 101710
06:00+14sse2485100 0.0 1017122
09:00+20sse57530 0.0 10171065
12:00+24sse564337 0.0 10151417
15:00+26se56380 0.0 10141658
18:00+24se47490 0.0 1014218
21:00+18se513555 0.0 1015282
21 may, fri
fri2100:00+14se39575 0.0 1015146
03:00+13ese39615 0.0 1014168
06:00+15ese412675 0.0 1014357
09:00+22ese711510 0.0 1013646
12:00+28ese810400 0.0 10111021
15:00+30ese911360 0.0 10091180
18:00+25ese712463 0.0 1010544
21:00+21ese613502 0.0 1011397
22 may, sat
sat2200:00+17e4106117 0.0 1009223
03:00+16ese41065100 0.0 1008203
06:00+17e387067 0.0 1008213
09:00+24ese565314 0.0 1007447
12:00+30ese67405 0.0 1006815
15:00+33e673284 0.0 10051201
18:00+28e6104321 0.0 1005324
21:00+21e365790 0.0 100696
23 may, sun
sun2300:00+18ene236327 0.0 100531
03:00+17nnw1168100 0.0 100511
06:00+18wnw2369100 0.1 100593
09:00+24wnw5657100 0.1 1005611
12:00+29nw335595 0.0 10061152
15:00+31nne224930 0.0 10041460
18:00+30ese2351100 0.0 1004118
21:00+24n465492 0.0 100683